FW0596 Weather Reports


Display with metric or nautical units.
time (UTC)temp
F
wind
direction
speed
MPH
gust
MPH
rain 1hr
in
rain 24hr
in
rain mn
in
humidity
%
barometer
mb
20260505054549 58 204 0.0 0.0 0.00 0.00 0.00 79 1009.6
20260505053047 58 204 0.0 0.0 0.00 0.00 0.00 78 1009.5
20260505051558 58 204 0.0 0.0 0.00 0.00 0.00 79 1009.6
20260505041539 60 204 0.0 0.0 0.00 0.00 0.00 82 1009.6
20260505040038 61 204 0.0 0.0 0.00 0.00 0.00 81 1009.4
20260505034535 61 204 0.0 0.0 0.00 0.00 0.00 81 1009.4
20260505033037 61 204 0.0 0.0 0.00 0.00 0.00 80 1009.5
20260505031534 62 204 0.0 0.0 0.00 0.00 0.00 80 1009.4
20260505030034 62 204 0.0 0.0 0.00 0.00 0.00 80 1009.5
20260505024534 62 200 1.0 0.0 0.00 0.00 0.00 79 1009.5
20260505023033 63 183 2.0 0.0 0.00 0.00 0.00 79 1009.5
20260505021532 63 207 2.0 0.0 0.00 0.00 0.00 78 1009.4
20260505020031 63 201 2.0 0.0 0.00 0.00 0.00 77 1009.2
20260505014530 64 180 1.0 0.0 0.00 0.00 0.00 75 1009.4
20260505013029 64 192 1.0 0.0 0.00 0.00 0.00 71 1009.3
20260505011529 64 200 0.0 0.0 0.00 0.00 0.00 71 1009.0
20260505010028 64 196 2.0 0.0 0.00 0.00 0.00 71 1008.8
20260505004528 64 190 1.0 0.0 0.00 0.00 0.00 73 1008.8
20260505003028 64 192 1.0 0.0 0.00 0.00 0.00 73 1008.8
20260505001526 64 206 1.0 0.0 0.00 0.00 0.00 72 1008.9
20260505000028 64 178 1.0 0.0 0.00 0.00 0.00 72 1008.8
20260504234524 65 205 1.0 0.0 0.00 0.00 0.00 71 1008.8
20260504233023 65 188 2.0 0.0 0.00 0.00 0.00 68 1008.7
20260504231521 66 209 1.0 0.0 0.00 0.00 0.00 65 1008.8
20260504230021 68 208 1.0 0.0 0.00 0.00 0.00 60 1008.6
20260504224521 68 202 1.0 0.0 0.00 0.00 0.00 58 1008.8
20260504223020 67 220 2.0 0.0 0.00 0.00 0.00 58 1008.8
20260504221519 68 196 1.0 0.0 0.00 0.00 0.00 58 1008.8
20260504220034 69 219 2.0 0.0 0.00 0.00 0.00 54 1008.8
20260504214522 70 218 1.0 0.0 0.00 0.00 0.00 53 1008.7
20260504213017 69 197 2.0 0.0 0.00 0.00 0.00 53 1008.7
20260504211525 70 199 1.0 0.0 0.00 0.00 0.00 51 1008.7
20260504210016 71 173 2.0 0.0 0.00 0.00 0.00 46 1008.8
20260504204518 72 195 2.0 0.0 0.00 0.00 0.00 44 1008.8
20260504203018 72 208 1.0 0.0 0.00 0.00 0.00 41 1008.8
20260504201512 72 76 1.0 0.0 0.00 0.00 0.00 41 1009.1
20260504200011 72 195 1.0 0.0 0.00 0.00 0.00 40 1009.2
20260504194510 73 161 1.0 0.0 0.00 0.00 0.00 40 1009.4
20260504193011 73 198 1.0 0.0 0.00 0.00 0.00 38 1009.6
20260504191506 73 95 0.0 0.0 0.00 0.00 0.00 40 1009.9
20260504190004 72 86 1.0 0.0 0.00 0.00 0.00 39 1010.1
20260504184503 72 163 1.0 0.0 0.00 0.00 0.00 40 1010.4
20260504183002 71 198 2.0 0.0 0.00 0.00 0.00 38 1010.6
20260504181600 72 209 1.0 0.0 0.00 0.00 0.00 40 1010.8
20260504180058 72 204 1.0 0.0 0.00 0.00 0.00 40 1010.9
20260504174556 72 180 1.0 0.0 0.00 0.00 0.00 40 1011.0
20260504173055 71 198 0.0 0.0 0.00 0.00 0.00 40 1011.2
20260504171554 70 196 1.0 0.0 0.00 0.00 0.00 41 1011.5
20260504120120 56 252 0.0 0.0 0.00 0.00 0.00 55 1013.6
20260504110105 53 38 0.0 0.0 0.00 0.00 0.00 60 1013.8
20260504081545 53 232 0.0 0.0 0.00 0.00 0.00 62 1014.0